Time,TemperatureF,DewpointF,PressureIn,WindDirection,WindDirectionDegrees,WindSpeedMPH,WindSpeedGustMPH,Humidity,HourlyPrecipIn,Conditions,Clouds,dailyrainin,SoftwareType,DateUTC
2013-10-09 00:22:00,57.0,45.0,-100.00,SSE,157,2.0,-999.0,63,-99.99,,,-99.99,,2013-10-09 05:22:00,
2013-10-09 00:52:00,57.0,45.0,-100.00,SSE,157,2.0,-999.0,64,-99.99,,,-99.99,,2013-10-09 05:52:00,
2013-10-09 01:22:00,57.0,45.0,-100.00,SSE,157,2.0,-999.0,62,-99.99,,,-99.99,,2013-10-09 06:22:00,
2013-10-09 01:52:00,57.0,45.0,-100.00,South,180,2.0,-999.0,64,-99.99,,,-99.99,,2013-10-09 06:52:00,
2013-10-09 02:21:00,56.0,45.0,-100.00,South,180,2.0,-999.0,66,-99.99,,,-99.99,,2013-10-09 07:21:00,
2013-10-09 02:52:00,55.0,45.0,-100.00,SSE,157,2.0,-999.0,68,-99.99,,,-99.99,,2013-10-09 07:52:00,
2013-10-09 03:23:00,54.0,45.0,-100.00,SSE,157,2.0,-999.0,70,-99.99,,,-99.99,,2013-10-09 08:23:00,
2013-10-09 03:53:00,54.0,45.0,-100.00,SSE,157,2.0,-999.0,72,-99.99,,,-99.99,,2013-10-09 08:53:00,
2013-10-09 04:22:00,54.0,45.0,-100.00,SSE,157,2.0,-999.0,72,-99.99,,,-99.99,,2013-10-09 09:22:00,
2013-10-09 04:53:00,54.0,45.0,-100.00,SSE,157,2.0,-999.0,72,-99.99,,,-99.99,,2013-10-09 09:53:00,
2013-10-09 05:23:00,54.0,45.0,-100.00,South,180,2.0,-999.0,72,-99.99,,,-99.99,,2013-10-09 10:23:00,
2013-10-09 05:53:00,53.0,45.0,-100.00,SSE,157,2.0,-999.0,74,-99.99,,,-99.99,,2013-10-09 10:53:00,
2013-10-09 06:22:00,53.0,45.0,-100.00,SSE,157,2.0,-999.0,73,-99.99,,,-99.99,,2013-10-09 11:22:00,
2013-10-09 06:52:00,53.0,45.0,-100.00,SSE,157,2.0,-999.0,73,-99.99,,,-99.99,,2013-10-09 11:52:00,
2013-10-09 07:21:00,53.0,45.0,-100.00,South,180,2.0,-999.0,74,-99.99,,,-99.99,,2013-10-09 12:21:00,
2013-10-09 07:52:00,52.0,45.0,-100.00,SSE,157,2.0,-999.0,77,-99.99,,,-99.99,,2013-10-09 12:52:00,
2013-10-09 08:22:00,53.0,45.0,-100.00,South,180,1.0,-999.0,76,-99.99,,,-99.99,,2013-10-09 13:22:00,
2013-10-09 08:42:00,53.0,46.0,-100.00,SSE,157,2.0,-999.0,76,-99.99,,,-99.99,,2013-10-09 13:42:00,
2013-10-09 08:52:00,54.0,46.0,-100.00,South,180,2.0,-999.0,73,-99.99,,,-99.99,,2013-10-09 13:52:00,
2013-10-09 09:22:00,58.0,47.0,-100.00,SSE,157,3.0,-999.0,67,-99.99,,,-99.99,,2013-10-09 14:22:00,
2013-10-09 09:52:00,60.0,48.0,-100.00,SSE,157,3.0,-999.0,63,-99.99,,,-99.99,,2013-10-09 14:52:00,
2013-10-09 10:22:00,63.0,48.0,-100.00,South,180,3.0,-999.0,57,-99.99,,,-99.99,,2013-10-09 15:22:00,
2013-10-09 10:53:00,65.0,48.0,-100.00,SSE,157,4.0,-999.0,54,-99.99,,,-99.99,,2013-10-09 15:53:00,
2013-10-09 11:24:00,67.0,48.0,-100.00,South,180,4.0,-999.0,51,-99.99,,,-99.99,,2013-10-09 16:24:00,
2013-10-09 11:52:00,69.0,49.0,-100.00,SSE,157,3.0,-999.0,49,-99.99,,,-99.99,,2013-10-09 16:52:00,
2013-10-09 12:22:00,70.0,48.0,-100.00,South,180,4.0,-999.0,46,-99.99,,,-99.99,,2013-10-09 17:22:00,
2013-10-09 12:42:00,71.0,48.0,-100.00,South,180,3.0,-999.0,45,-99.99,,,-99.99,,2013-10-09 17:42:00,
2013-10-09 12:52:00,72.0,49.0,-100.00,SSE,157,3.0,-999.0,45,-99.99,,,-99.99,,2013-10-09 17:52:00,
2013-10-09 13:22:00,73.0,50.0,-100.00,SSE,157,3.0,-999.0,44,-99.99,,,-99.99,,2013-10-09 18:22:00,
2013-10-09 13:42:00,73.0,49.0,-100.00,South,180,3.0,-999.0,43,-99.99,,,-99.99,,2013-10-09 18:42:00,
2013-10-09 13:52:00,74.0,50.0,-100.00,SSE,157,3.0,-999.0,43,-99.99,,,-99.99,,2013-10-09 18:52:00,
2013-10-09 14:22:00,75.0,50.0,-100.00,SSE,157,3.0,-999.0,41,-99.99,,,-99.99,,2013-10-09 19:22:00,
2013-10-09 14:52:00,77.0,49.0,-100.00,SSE,157,3.0,-999.0,38,-99.99,,,-99.99,,2013-10-09 19:52:00,
2013-10-09 15:22:00,78.0,50.0,-100.00,SSE,157,3.0,-999.0,37,-99.99,,,-99.99,,2013-10-09 20:22:00,
2013-10-09 15:52:00,78.0,50.0,-100.00,SSE,157,4.0,-999.0,37,-99.99,,,-99.99,,2013-10-09 20:52:00,
2013-10-09 16:22:00,78.0,50.0,-100.00,SSE,157,3.0,-999.0,37,-99.99,,,-99.99,,2013-10-09 21:22:00,
2013-10-09 16:44:00,79.0,49.0,-100.00,SSE,157,3.0,-999.0,36,-99.99,,,-99.99,,2013-10-09 21:44:00,
2013-10-09 16:53:00,78.0,49.0,-100.00,SSE,157,3.0,-999.0,36,-99.99,,,-99.99,,2013-10-09 21:53:00,
2013-10-09 17:24:00,78.0,50.0,-100.00,SSE,157,3.0,-999.0,38,-99.99,,,-99.99,,2013-10-09 22:24:00,
2013-10-09 17:43:00,77.0,50.0,-100.00,SSE,157,3.0,-999.0,39,-99.99,,,-99.99,,2013-10-09 22:43:00,
2013-10-09 17:53:00,76.0,50.0,-100.00,SSE,157,3.0,-999.0,40,-99.99,,,-99.99,,2013-10-09 22:53:00,
2013-10-09 18:22:00,75.0,51.0,-100.00,SSE,157,3.0,-999.0,44,-99.99,,,-99.99,,2013-10-09 23:22:00,
2013-10-09 18:53:00,72.0,52.0,-100.00,SSE,157,2.0,-999.0,48,-99.99,,,-99.99,,2013-10-09 23:53:00,
2013-10-09 19:22:00,70.0,51.0,-100.00,SSE,157,2.0,-999.0,52,-99.99,,,-99.99,,2013-10-10 00:22:00,
2013-10-09 19:42:00,69.0,52.0,-100.00,SSE,157,2.0,-999.0,54,-99.99,,,-99.99,,2013-10-10 00:42:00,
2013-10-09 19:52:00,67.0,52.0,-100.00,SE,135,2.0,-999.0,58,-99.99,,,-99.99,,2013-10-10 00:52:00,
2013-10-09 20:21:00,66.0,52.0,-100.00,SE,135,2.0,-999.0,60,-99.99,,,-99.99,,2013-10-10 01:21:00,
2013-10-09 20:42:00,64.0,52.0,-100.00,SE,135,2.0,-999.0,63,-99.99,,,-99.99,,2013-10-10 01:42:00,
2013-10-09 20:52:00,63.0,51.0,-100.00,SSE,157,2.0,-999.0,64,-99.99,,,-99.99,,2013-10-10 01:52:00,
2013-10-09 21:22:00,63.0,51.0,-100.00,SSE,157,2.0,-999.0,65,-99.99,,,-99.99,,2013-10-10 02:22:00,
2013-10-09 22:22:00,62.0,51.0,-100.00,SSE,157,2.0,-999.0,67,-99.99,,,-99.99,,2013-10-10 03:22:00,
2013-10-09 22:54:00,61.0,51.0,-100.00,SSE,157,2.0,-999.0,69,-99.99,,,-99.99,,2013-10-10 03:54:00,
2013-10-09 23:24:00,61.0,51.0,-100.00,SSE,157,2.0,-999.0,70,-99.99,,,-99.99,,2013-10-10 04:24:00,
2013-10-09 23:53:00,61.0,51.0,-100.00,SSE,157,2.0,-999.0,71,-99.99,,,-99.99,,2013-10-10 04:53:00,